When you browse on this site, cookies collect data to enhance your experience and personalize the content and advertising you see.
Visit our Privacy Policy to learn more. By continuing to use the site, you agree to this use of cookies and data.
  • In Sweden
  • List of Countries
  • For 7 days
  • Water Temperature
  • Weather Map
  • Weather Widgets
  • user-avatar
    Login

    Hourly Weather Klagenfurt

    Today, 24 August, Saturday

    Time Temperature Precipitation Wind Pressure Humidity
    00:00 +16°C° 0.3 mm 1 mps 694 mmHg 94%
    01:00 +16°C° 0.3 mm 1 mps 694 mmHg 94%
    02:00 +16°C° 0.2 mm 1 mps 694 mmHg 95%
    03:00 +16°C° 0.2 mm 1 mps 694 mmHg 95%
    04:00 +16°C° 0.2 mm 1 mps 694 mmHg 95%
    05:00 +16°C° 0.6 mm 1 mps 694 mmHg 95%
    06:00 +18°C° 0.6 mm 1 mps 694 mmHg 95%
    07:00 +18°C° 0.6 mm 1 mps 694 mmHg 95%
    08:00 +20°C° 0.3 mm 1 mps 694 mmHg 91%
    09:00 +21°C° 0.3 mm 1 mps 695 mmHg 87%
    10:00 +22°C° 0.3 mm 1 mps 695 mmHg 83%
    11:00 +23°C° 1 mm 1 mps 695 mmHg 79%
    12:00 +24°C° 1 mm 1 mps 694 mmHg 76%
    13:00 +25°C° 1 mm 1 mps 694 mmHg 73%
    14:00 +25°C° 0.6 mm 1 mps 694 mmHg 72%
    15:00 +25°C° 0.6 mm 1 mps 694 mmHg 71%
    16:00 +25°C° 0.6 mm 1 mps 694 mmHg 71%
    17:00 +23°C° 0.7 mm 1 mps 693 mmHg 76%
    18:00 +21°C° 0.7 mm 1 mps 693 mmHg 81%
    19:00 +17°C° 0.7 mm 0 mps 693 mmHg 86%
    20:00 +19°C° 0.2 mm 1 mps 693 mmHg 87%
    21:00 +18°C° 0.2 mm 1 mps 693 mmHg 88%
    22:00 +18°C° 0.2 mm 1 mps 693 mmHg 89%
    23:00 +16°C° 0.1 mm 1 mps 693 mmHg 89%

    Tomorrow, 25 August, Sunday

    Time Temperature Precipitation Wind Pressure Humidity
    00:00 +16°C° 0.1 mm 1 mps 693 mmHg 89%
    01:00 +16°C° 0.1 mm 1 mps 692 mmHg 89%
    02:00 +15°C° 0 mm 1 mps 692 mmHg 89%
    03:00 +15°C° 0 mm 1 mps 692 mmHg 89%
    04:00 +15°C° 0 mm 1 mps 692 mmHg 89%
    05:00 +16°C° 0 mm 1 mps 692 mmHg 89%
    06:00 +18°C° 0 mm 1 mps 692 mmHg 88%
    07:00 +18°C° 0 mm 1 mps 692 mmHg 88%
    08:00 +21°C° 0 mm 1 mps 693 mmHg 79%
    09:00 +23°C° 0 mm 1 mps 693 mmHg 71%
    10:00 +25°C° 0 mm 1 mps 694 mmHg 62%
    11:00 +25°C° 0.3 mm 1 mps 694 mmHg 61%
    12:00 +26°C° 0.3 mm 1 mps 694 mmHg 59%
    13:00 +27°C° 0.3 mm 1 mps 694 mmHg 58%
    14:00 +26°C° 0.3 mm 1 mps 693 mmHg 59%
    15:00 +26°C° 0.3 mm 1 mps 693 mmHg 61%
    16:00 +26°C° 0.3 mm 1 mps 693 mmHg 62%
    17:00 +24°C° 0.3 mm 1 mps 693 mmHg 70%
    18:00 +22°C° 0.3 mm 1 mps 692 mmHg 77%
    19:00 +20°C° 0.3 mm 1 mps 692 mmHg 85%
    20:00 +19°C° 0.2 mm 1 mps 692 mmHg 85%
    21:00 +19°C° 0.2 mm 1 mps 692 mmHg 86%
    22:00 +18°C° 0.2 mm 1 mps 693 mmHg 87%
    23:00 +18°C° 0 mm 1 mps 692 mmHg 87%

    Day after tomorrow, 26 August, Monday

    Time Temperature Precipitation Wind Pressure Humidity
    00:00 +16°C° 0 mm 1 mps 692 mmHg 88%
    01:00 +16°C° 0 mm 1 mps 692 mmHg 89%
    02:00 +16°C° 0 mm 1 mps 692 mmHg 90%
    03:00 +15°C° 0 mm 1 mps 692 mmHg 90%
    04:00 +15°C° 0 mm 1 mps 692 mmHg 91%
    05:00 +16°C° 0 mm 1 mps 692 mmHg 90%
    06:00 +18°C° 0 mm 1 mps 692 mmHg 89%
    07:00 +19°C° 0 mm 1 mps 692 mmHg 87%
    08:00 +21°C° 0.1 mm 1 mps 693 mmHg 79%
    09:00 +23°C° 0.1 mm 1 mps 693 mmHg 70%
    10:00 +25°C° 0.1 mm 1 mps 694 mmHg 61%
    11:00 +26°C° 1 mm 1 mps 693 mmHg 63%
    12:00 +26°C° 1 mm 1 mps 693 mmHg 65%
    13:00 +26°C° 1 mm 1 mps 693 mmHg 66%
    14:00 +26°C° 1.1 mm 1 mps 693 mmHg 69%
    15:00 +25°C° 1.1 mm 1 mps 693 mmHg 71%
    16:00 +25°C° 1.1 mm 1 mps 692 mmHg 73%
    17:00 +23°C° 0.6 mm 1 mps 692 mmHg 78%
    18:00 +21°C° 0.6 mm 1 mps 692 mmHg 82%
    19:00 +18°C° 0.6 mm 0 mps 692 mmHg 87%
    20:00 +17°C° 0.1 mm 0 mps 692 mmHg 87%
    21:00 +19°C° 0.1 mm 1 mps 692 mmHg 88%
    22:00 +18°C° 0.1 mm 1 mps 692 mmHg 88%
    23:00 +18°C° 0 mm 1 mps 692 mmHg 89%

    27 August, Tuesday

    Time Temperature Precipitation Wind Pressure Humidity
    00:00 +16°C° 0 mm 1 mps 692 mmHg 89%
    01:00 +16°C° 0 mm 1 mps 692 mmHg 90%
    02:00 +16°C° 0 mm 1 mps 692 mmHg 90%
    03:00 +16°C° 0 mm 1 mps 692 mmHg 91%
    04:00 +16°C° 0 mm 1 mps 691 mmHg 91%
    05:00 +15°C° 0 mm 0 mps 692 mmHg 89%
    06:00 +16°C° 0 mm 0 mps 692 mmHg 88%
    07:00 +17°C° 0 mm 0 mps 693 mmHg 87%
    08:00 +19°C° 0.1 mm 0 mps 693 mmHg 80%
    09:00 +23°C° 0.1 mm 1 mps 693 mmHg 72%
    10:00 +26°C° 0.1 mm 1 mps 694 mmHg 65%
    11:00 +26°C° 0.6 mm 1 mps 694 mmHg 63%
    12:00 +27°C° 0.6 mm 1 mps 694 mmHg 61%
    13:00 +27°C° 0.6 mm 1 mps 694 mmHg 59%
    14:00 +27°C° 0.6 mm 1 mps 694 mmHg 61%
    15:00 +27°C° 0.6 mm 1 mps 693 mmHg 64%
    16:00 +26°C° 0.6 mm 1 mps 693 mmHg 66%
    17:00 +24°C° 0.8 mm 1 mps 693 mmHg 72%
    18:00 +22°C° 0.8 mm 1 mps 692 mmHg 79%
    19:00 +19°C° 0.8 mm 0 mps 692 mmHg 85%
    20:00 +20°C° 0.6 mm 1 mps 692 mmHg 87%
    21:00 +19°C° 0.6 mm 1 mps 692 mmHg 88%
    22:00 +19°C° 0.6 mm 1 mps 692 mmHg 90%
    23:00 +18°C° 0 mm 1 mps 692 mmHg 90%

    28 August, Wednesday

    Time Temperature Precipitation Wind Pressure Humidity
    00:00 +18°C° 0 mm 1 mps 692 mmHg 90%
    01:00 +16°C° 0 mm 0 mps 692 mmHg 91%
    02:00 +16°C° 0.1 mm 0 mps 692 mmHg 91%
    03:00 +15°C° 0.1 mm 0 mps 691 mmHg 91%
    04:00 +15°C° 0.1 mm 0 mps 691 mmHg 92%
    05:00 +16°C° 0 mm 0 mps 691 mmHg 91%
    06:00 +17°C° 0 mm 0 mps 692 mmHg 90%
    07:00 +18°C° 0 mm 0 mps 692 mmHg 89%
    08:00 +20°C° 0 mm 0 mps 692 mmHg 80%
    09:00 +22°C° 0 mm 0 mps 692 mmHg 72%
    10:00 +24°C° 0 mm 0 mps 693 mmHg 64%
    11:00 +27°C° 0.5 mm 1 mps 692 mmHg 63%
    12:00 +27°C° 0.5 mm 1 mps 692 mmHg 63%
    13:00 +27°C° 0.5 mm 1 mps 692 mmHg 62%
    14:00 +27°C° 0.4 mm 1 mps 691 mmHg 63%
    15:00 +26°C° 0.4 mm 1 mps 691 mmHg 64%
    16:00 +26°C° 0.4 mm 1 mps 691 mmHg 65%
    17:00 +24°C° 0.2 mm 1 mps 690 mmHg 72%
    18:00 +22°C° 0.2 mm 1 mps 690 mmHg 78%
    19:00 +20°C° 0.2 mm 1 mps 690 mmHg 84%
    20:00 +20°C° 0.1 mm 1 mps 690 mmHg 85%
    21:00 +19°C° 0.1 mm 1 mps 690 mmHg 85%
    22:00 +18°C° 0.1 mm 1 mps 690 mmHg 86%
    23:00 +18°C° 0 mm 1 mps 690 mmHg 87%

    29 August, Thursday

    Time Temperature Precipitation Wind Pressure Humidity
    00:00 +18°C° 0 mm 1 mps 689 mmHg 87%
    01:00 +16°C° 0 mm 1 mps 689 mmHg 88%
    02:00 +16°C° 0 mm 1 mps 689 mmHg 88%
    03:00 +16°C° 0 mm 1 mps 689 mmHg 87%
    04:00 +16°C° 0 mm 1 mps 689 mmHg 87%
    05:00 +18°C° 0 mm 1 mps 689 mmHg 86%
    06:00 +18°C° 0 mm 1 mps 689 mmHg 85%
    07:00 +17°C° 0 mm 0 mps 689 mmHg 84%
    08:00 +19°C° 0 mm 0 mps 689 mmHg 76%
    09:00 +21°C° 0 mm 0 mps 690 mmHg 69%
    10:00 +26°C° 0 mm 1 mps 690 mmHg 61%
    11:00 +26°C° 0.1 mm 1 mps 690 mmHg 58%
    12:00 +27°C° 0.1 mm 1 mps 690 mmHg 54%
    13:00 +28°C° 0.1 mm 1 mps 690 mmHg 51%
    14:00 +27°C° 0.3 mm 1 mps 690 mmHg 54%
    15:00 +27°C° 0.3 mm 1 mps 690 mmHg 57%
    16:00 +26°C° 0.3 mm 1 mps 689 mmHg 60%
    17:00 +24°C° 0.3 mm 1 mps 689 mmHg 67%
    18:00 +20°C° 0.3 mm 0 mps 689 mmHg 74%
    19:00 +18°C° 0.3 mm 0 mps 689 mmHg 80%
    20:00 +18°C° 0.6 mm 0 mps 689 mmHg 82%
    21:00 +19°C° 0.6 mm 1 mps 689 mmHg 83%
    22:00 +19°C° 0.6 mm 1 mps 689 mmHg 85%
    23:00 +18°C° 0.2 mm 1 mps 689 mmHg 85%
    Show more